GW6581 Weather Reports


time (UTC)temp
C
wind
direction
speed
KPH
gust
KPH
rain 1hr
cm
rain 24hr
cm
rain mn
cm
humidity
%
barometer
mb
20260507133542 18 82 9.7 24.1 0.00 0.00 0.00 64 1014.0
20260507133043 18 56 20.9 30.6 0.00 0.00 0.00 65 1014.0
20260507132542 18 134 4.8 20.9 0.00 0.00 0.00 64 1014.0
20260507132043 18 72 8.0 20.9 0.00 0.00 0.00 66 1014.0
20260507131543 18 36 9.7 19.3 0.00 0.00 0.00 66 1014.0
20260507131042 18 83 8.0 20.9 0.00 0.00 0.00 66 1014.0
20260507130545 18 55 16.1 24.1 0.00 0.00 0.00 64 1014.0
20260507130043 18 358 8.0 14.5 0.00 0.00 0.00 65 1014.0
20260507125548 18 353 8.0 12.9 0.00 0.00 0.00 64 1014.0
20260507125042 18 334 4.8 14.5 0.00 0.00 0.00 65 1015.0
20260507124543 17 93 9.7 9.7 0.00 0.00 0.00 67 1014.0
20260507124043 18 59 11.3 24.1 0.00 0.00 0.00 67 1015.0
20260507123543 18 74 16.1 24.1 0.00 0.00 0.00 63 1015.0
20260507123043 18 85 12.9 17.7 0.00 0.00 0.00 66 1014.0
20260507122543 18 62 4.8 27.4 0.00 0.00 0.00 66 1015.0
20260507122043 18 55 20.9 24.1 0.00 0.00 0.00 65 1015.0
20260507121543 17 101 6.4 25.7 0.00 0.00 0.00 67 1015.0
20260507121043 18 66 14.5 27.4 0.00 0.00 0.00 66 1015.0
20260507120543 17 83 8.0 22.5 0.00 0.00 0.00 67 1015.0
20260507120042 18 67 17.7 25.7 0.00 0.00 0.00 64 1015.0
20260507115543 18 90 14.5 16.1 0.00 0.00 0.00 65 1015.0
20260507115042 18 98 8.0 14.5 0.00 0.00 0.00 65 1015.0
20260507114543 18 104 8.0 17.7 0.00 0.00 0.00 66 1015.0
20260507114042 18 55 20.9 30.6 0.00 0.00 0.00 64 1015.0
20260507113542 18 76 16.1 24.1 0.00 0.00 0.00 64 1015.0
20260507113042 19 59 4.8 14.5 0.00 0.00 0.00 63 1015.0
20260507112542 18 20 4.8 17.7 0.00 0.00 0.00 66 1015.0
20260507112045 18 176 4.8 14.5 0.00 0.00 0.00 65 1015.0
20260507111542 18 133 19.3 24.1 0.00 0.00 0.00 64 1015.0
20260507111043 18 12 14.5 16.1 0.00 0.00 0.00 64 1015.0
20260507110543 17 21 11.3 17.7 0.00 0.00 0.00 67 1015.0
20260507110044 17 59 20.9 24.1 0.00 0.00 0.00 67 1015.0
20260507105542 17 65 17.7 17.7 0.00 0.00 0.00 67 1015.0
20260507105042 18 77 8.0 20.9 0.00 0.00 0.00 67 1015.0
20260507104543 18 352 8.0 14.5 0.00 0.00 0.00 67 1015.0
20260507104043 17 67 16.1 20.9 0.00 0.00 0.00 68 1015.0
20260507103543 18 71 19.3 24.1 0.00 0.00 0.00 66 1015.0
20260507103042 18 340 4.8 16.1 0.00 0.00 0.00 67 1015.0
20260507102542 18 54 20.9 25.7 0.00 0.00 0.00 67 1015.0
20260507102043 18 62 3.2 16.1 0.00 0.00 0.00 67 1015.0
20260507101055 18 56 8.0 17.7 0.00 0.00 0.00 66 1015.0
20260507100542 18 64 19.3 20.9 0.00 0.00 0.00 64 1015.0
20260507100042 18 1 8.0 17.7 0.00 0.00 0.00 67 1015.0
20260507095542 18 78 3.2 9.7 0.00 0.00 0.00 65 1015.0
20260507095044 18 135 4.8 17.7 0.00 0.00 0.00 67 1015.0
20260507094542 17 54 22.5 24.1 0.00 0.00 0.00 68 1015.0
20260507094042 17 52 17.7 22.5 0.00 0.00 0.00 68 1015.0
20260507093542 18 11 3.2 11.3 0.00 0.00 0.00 67 1015.0
20260507092542 18 49 17.7 19.3 0.00 0.00 0.00 65 1015.0
20260507092042 17 47 4.8 11.3 0.00 0.00 0.00 68 1015.0
20260507091542 17 62 16.1 17.7 0.00 0.00 0.00 69 1015.0
20260507091042 17 17 8.0 17.7 0.00 0.00 0.00 70 1015.0
20260507090542 17 25 8.0 14.5 0.00 0.00 0.00 70 1015.0
20260507090043 17 77 12.9 17.7 0.00 0.00 0.00 68 1015.0
20260507085544 17 58 4.8 9.7 0.00 0.00 0.00 68 1015.0
20260507085043 17 330 6.4 16.1 0.00 0.00 0.00 68 1015.0
20260507084542 17 353 1.6 11.3 0.00 0.00 0.00 69 1015.0
20260507084043 17 31 4.8 8.0 0.00 0.00 0.00 71 1015.0
20260507083542 17 19 3.2 11.3 0.00 0.00 0.00 71 1015.0
20260507083043 17 239 3.2 12.9 0.00 0.00 0.00 70 1015.0
20260507082543 17 283 9.7 11.3 0.00 0.00 0.00 70 1015.0
20260507082042 17 313 3.2 8.0 0.00 0.00 0.00 69 1015.0
20260507081543 17 26 3.2 12.9 0.00 0.00 0.00 72 1015.0
20260507081045 17 21 9.7 12.9 0.00 0.00 0.00 71 1015.0
20260507080542 16 3 6.4 9.7 0.00 0.00 0.00 73 1015.0
20260507080042 16 40 6.4 12.9 0.00 0.00 0.00 73 1015.0
20260507075542 16 18 9.7 16.1 0.00 0.00 0.00 74 1015.0
20260507075042 16 6 6.4 12.9 0.00 0.00 0.00 74 1015.0
20260507074542 16 359 12.9 17.7 0.00 0.00 0.00 74 1015.0
20260507074042 16 294 6.4 12.9 0.00 0.00 0.00 74 1016.0
20260507073542 16 273 4.8 12.9 0.00 0.00 0.00 74 1015.0
20260507073043 16 307 8.0 17.7 0.00 0.00 0.00 75 1015.0
20260507072542 15 288 3.2 8.0 0.00 0.00 0.00 76 1016.0
20260507072043 15 293 8.0 9.7 0.00 0.00 0.00 75 1015.0
20260507071543 15 352 11.3 11.3 0.00 0.00 0.00 75 1015.0
20260507071042 15 339 8.0 9.7 0.00 0.00 0.00 73 1015.0
20260507070544 16 41 6.4 11.3 0.00 0.00 0.00 71 1015.0
20260507070042 16 32 6.4 9.7 0.00 0.00 0.00 70 1015.0
20260507065543 16 301 1.6 8.0 0.00 0.00 0.00 70 1015.0
20260507065043 16 293 3.2 8.0 0.00 0.00 0.00 70 1015.0
20260507064543 15 352 3.2 6.4 0.00 0.00 0.00 70 1015.0
20260507064042 15 350 6.4 9.7 0.00 0.00 0.00 69 1015.0
20260507063543 15 21 3.2 8.0 0.00 0.00 0.00 69 1015.0
20260507063042 15 13 1.6 4.8 0.00 0.00 0.00 67 1015.0
20260507062542 16 23 4.8 8.0 0.00 0.00 0.00 66 1015.0
20260507062043 16 2 4.8 8.0 0.00 0.00 0.00 64 1015.0
20260507061542 16 344 3.2 6.4 0.00 0.00 0.00 65 1015.0
20260507061043 17 92 1.6 3.2 0.00 0.00 0.00 64 1015.0
20260507060042 16 356 3.2 4.8 0.00 0.00 0.00 69 1015.0
20260507055543 16 28 0.0 3.2 0.00 0.00 0.00 68 1014.0
20260507055042 15 33 0.0 3.2 0.00 0.00 0.00 70 1014.0
20260507054542 15 308 3.2 4.8 0.00 0.00 0.00 71 1014.0
20260507054043 15 33 0.0 3.2 0.00 0.00 0.00 73 1014.0
20260507053543 14 46 0.0 1.6 0.00 0.00 0.00 74 1014.0
20260507053042 13 6 3.2 4.8 0.00 0.00 0.00 75 1014.0
20260507052542 13 38 3.2 3.2 0.00 0.00 0.00 75 1014.0
20260507052043 13 2 1.6 3.2 0.00 0.00 0.00 75 1014.0
20260507051542 13 9 1.6 4.8 0.00 0.00 0.00 76 1014.0
20260507051042 13 10 1.6 4.8 0.00 0.00 0.00 76 1014.0
20260507050542 13 323 0.0 3.2 0.00 0.00 0.00 76 1014.0
20260507050042 13 44 3.2 3.2 0.00 0.00 0.00 76 1014.0
20260507045542 13 3 3.2 3.2 0.00 0.00 0.00 76 1014.0
20260507045042 13 22 1.6 4.8 0.00 0.00 0.00 76 1014.0
20260507044543 13 337 4.8 4.8 0.00 0.00 0.00 76 1014.0
20260507044042 13 344 0.0 4.8 0.00 0.00 0.00 76 1014.0
20260507043543 13 27 4.8 4.8 0.00 0.00 0.00 76 1014.0
20260507043042 13 337 0.0 4.8 0.00 0.00 0.00 76 1014.0
20260507042543 13 330 3.2 4.8 0.00 0.00 0.00 76 1014.0
20260507042043 13 350 6.4 6.4 0.00 0.00 0.00 76 1014.0
20260507041543 13 359 0.0 4.8 0.00 0.00 0.00 76 1014.0
20260507041042 13 326 4.8 6.4 0.00 0.00 0.00 77 1014.0
20260507040542 13 330 6.4 8.0 0.00 0.00 0.00 77 1014.0
20260507040042 13 320 3.2 6.4 0.00 0.00 0.00 77 1014.0
20260507035542 13 4 3.2 8.0 0.00 0.00 0.00 77 1014.0
20260507035043 13 352 4.8 6.4 0.00 0.00 0.00 77 1014.0
20260507034543 13 15 3.2 4.8 0.00 0.00 0.00 78 1014.0
20260507034042 13 4 3.2 6.4 0.00 0.00 0.00 78 1014.0
20260507033542 13 317 1.6 4.8 0.00 0.00 0.00 78 1014.0
20260507033043 13 299 3.2 4.8 0.00 0.00 0.00 78 1014.0
20260507032542 13 352 3.2 4.8 0.00 0.00 0.00 78 1014.0
20260507032042 13 332 4.8 8.0 0.00 0.00 0.00 78 1014.0
20260507031543 13 345 3.2 4.8 0.00 0.00 0.00 78 1014.0
20260507031043 14 336 6.4 8.0 0.00 0.00 0.00 78 1014.0
20260507030543 14 355 3.2 3.2 0.00 0.00 0.00 78 1014.0
20260507030042 14 337 3.2 4.8 0.00 0.00 0.00 78 1014.0
20260507025543 14 312 3.2 6.4 0.00 0.00 0.00 78 1014.0
20260507025047 14 332 4.8 4.8 0.00 0.00 0.00 79 1014.0
20260507024543 14 37 1.6 4.8 0.00 0.00 0.00 78 1014.0
20260507024043 14 0 1.6 4.8 0.00 0.00 0.00 78 1014.0
20260507023543 14 339 3.2 4.8 0.00 0.00 0.00 78 1014.0
20260507023043 14 318 4.8 6.4 0.00 0.00 0.00 78 1014.0
20260507022542 14 327 4.8 6.4 0.00 0.00 0.00 78 1014.0
20260507022042 14 315 0.0 6.4 0.00 0.00 0.00 78 1014.0
20260507021542 14 33 0.0 3.2 0.00 0.00 0.00 78 1014.0
20260507021042 14 13 3.2 6.4 0.00 0.00 0.00 78 1014.0
20260507020543 14 8 3.2 3.2 0.00 0.00 0.00 77 1014.0
20260507020043 14 336 3.2 4.8 0.00 0.00 0.00 77 1014.0
20260507015543 14 1 1.6 4.8 0.00 0.00 0.00 77 1014.0
20260507015043 14 356 3.2 6.4 0.00 0.00 0.00 77 1014.0
20260507014544 14 317 4.8 6.4 0.00 0.00 0.00 77 1014.0
20260507014042 14 339 1.6 4.8 0.00 0.00 0.00 76 1014.0
20260507013542 14 339 4.8 8.0 0.00 0.00 0.00 76 1014.0
20260507013043 14 347 3.2 6.4 0.00 0.00 0.00 76 1014.0
20260507012543 14 337 6.4 6.4 0.00 0.00 0.00 76 1014.0
20260507012042 14 352 6.4 6.4 0.00 0.00 0.00 76 1014.0
20260507011542 14 344 3.2 6.4 0.00 0.00 0.00 76 1014.0
20260507011042 15 327 9.7 9.7 0.00 0.00 0.00 76 1014.0
20260507010542 15 313 4.8 8.0 0.00 0.00 0.00 76 1014.0
20260507010045 15 288 4.8 6.4 0.00 0.00 0.00 76 1014.0
20260507005543 15 324 6.4 8.0 0.00 0.00 0.00 76 1014.0
20260507005042 15 335 4.8 8.0 0.00 0.00 0.00 76 1014.0
20260507004542 15 310 6.4 8.0 0.00 0.00 0.00 76 1014.0
20260507004042 15 322 4.8 8.0 0.00 0.00 0.00 75 1014.0
20260507003542 15 303 4.8 9.7 0.00 0.00 0.00 75 1014.0
20260507003043 15 340 4.8 11.3 0.00 0.00 0.00 75 1014.0
20260507002544 15 314 4.8 8.0 0.00 0.00 0.00 75 1015.0
20260507002043 15 348 8.0 8.0 0.00 0.00 0.00 75 1015.0
20260507001543 15 333 4.8 8.0 0.00 0.00 0.00 75 1015.0
20260507001043 15 337 4.8 6.4 0.00 0.00 0.00 75 1015.0
20260507000543 15 316 4.8 6.4 0.00 0.00 0.00 75 1015.0
20260507000043 15 319 3.2 6.4 0.00 0.00 0.00 75 1015.0
20260506235543 15 353 4.8 6.4 0.00 0.00 0.00 75 1015.0
20260506235043 15 328 4.8 8.0 0.00 0.00 0.00 75 1015.0
20260506234543 15 332 6.4 8.0 0.00 0.00 0.00 74 1015.0
20260506234042 15 343 4.8 8.0 0.00 0.00 0.00 74 1015.0
20260506233543 15 347 4.8 9.7 0.00 0.00 0.00 74 1015.0
20260506233043 15 331 6.4 8.0 0.00 0.00 0.00 74 1015.0
20260506232543 15 338 6.4 8.0 0.00 0.00 0.00 73 1015.0
20260506232042 15 310 6.4 9.7 0.00 0.00 0.00 73 1015.0
20260506231543 15 313 4.8 8.0 0.00 0.00 0.00 73 1015.0
20260506231043 15 340 6.4 8.0 0.00 0.00 0.00 73 1015.0
20260506230543 15 341 1.6 6.4 0.00 0.00 0.00 73 1015.0
20260506230044 15 353 4.8 6.4 0.00 0.00 0.00 73 1015.0
20260506225542 15 312 3.2 6.4 0.00 0.00 0.00 73 1014.0
20260506225043 15 306 4.8 8.0 0.00 0.00 0.00 72 1015.0
20260506224543 15 312 6.4 8.0 0.00 0.00 0.00 72 1015.0
20260506224042 15 334 8.0 8.0 0.00 0.00 0.00 72 1014.0
20260506223542 15 308 4.8 6.4 0.00 0.00 0.00 72 1015.0
20260506223043 15 335 8.0 9.7 0.00 0.00 0.00 72 1014.0
20260506222542 15 338 8.0 8.0 0.00 0.00 0.00 72 1014.0
20260506222042 15 337 6.4 6.4 0.00 0.00 0.00 72 1014.0
20260506221543 15 329 1.6 6.4 0.00 0.00 0.00 72 1014.0
20260506221042 15 305 1.6 9.7 0.00 0.00 0.00 72 1014.0
20260506220542 15 349 6.4 8.0 0.00 0.00 0.00 72 1014.0
20260506220044 15 326 3.2 6.4 0.00 0.00 0.00 72 1014.0
20260506215546 15 21 3.2 8.0 0.00 0.00 0.00 72 1015.0
20260506215042 15 22 4.8 8.0 0.00 0.00 0.00 72 1014.0
20260506214542 16 1 4.8 6.4 0.00 0.00 0.00 71 1014.0
20260506214042 16 292 6.4 6.4 0.00 0.00 0.00 71 1015.0
20260506213543 16 333 6.4 8.0 0.00 0.00 0.00 71 1014.0
20260506213042 16 37 8.0 8.0 0.00 0.00 0.00 72 1014.0
20260506212542 16 9 4.8 9.7 0.00 0.00 0.00 72 1014.0
20260506212042 16 330 1.6 8.0 0.00 0.00 0.00 72 1014.0
20260506211542 16 347 3.2 6.4 0.00 0.00 0.00 72 1014.0
20260506211042 16 301 6.4 8.0 0.00 0.00 0.00 72 1014.0
20260506210542 16 358 4.8 8.0 0.00 0.00 0.00 72 1014.0
20260506210042 16 36 0.0 4.8 0.00 0.00 0.00 72 1014.0
20260506205542 16 358 8.0 9.7 0.00 0.00 0.00 72 1014.0
20260506205043 16 320 3.2 6.4 0.00 0.00 0.00 72 1014.0
20260506204543 16 355 11.3 11.3 0.00 0.00 0.00 72 1014.0
20260506204043 16 303 4.8 11.3 0.00 0.00 0.00 72 1014.0
20260506203543 16 356 4.8 9.7 0.00 0.00 0.00 72 1014.0
20260506203043 16 349 4.8 8.0 0.00 0.00 0.00 71 1014.0
20260506202542 16 352 6.4 11.3 0.00 0.00 0.00 71 1014.0
20260506202042 16 358 4.8 6.4 0.00 0.00 0.00 71 1014.0
20260506201543 16 34 0.0 4.8 0.00 0.00 0.00 71 1014.0
20260506201043 16 338 4.8 4.8 0.00 0.00 0.00 71 1014.0
20260506200542 16 346 4.8 8.0 0.00 0.00 0.00 72 1014.0
20260506200042 16 65 4.8 8.0 0.00 0.00 0.00 72 1014.0
20260506195542 16 310 3.2 6.4 0.00 0.00 0.00 71 1013.0
20260506195042 16 69 3.2 6.4 0.00 0.00 0.00 71 1013.0
20260506194543 16 61 4.8 6.4 0.00 0.00 0.00 71 1013.0
20260506194043 16 68 9.7 11.3 0.00 0.00 0.00 71 1013.0
20260506193542 16 56 6.4 9.7 0.00 0.00 0.00 71 1013.0
20260506193042 16 42 6.4 8.0 0.00 0.00 0.00 71 1013.0
20260506192542 16 60 4.8 8.0 0.00 0.00 0.00 71 1013.0
20260506192043 16 60 9.7 14.5 0.00 0.00 0.00 71 1013.0
20260506191544 16 52 4.8 12.9 0.00 0.00 0.00 71 1013.0
20260506191042 16 95 9.7 12.9 0.00 0.00 0.00 70 1013.0
20260506190545 16 98 8.0 9.7 0.00 0.00 0.00 70 1013.0
20260506190042 16 114 8.0 8.0 0.00 0.00 0.00 70 1013.0
20260506185542 16 104 8.0 9.7 0.00 0.00 0.00 69 1013.0
20260506185043 17 96 9.7 14.5 0.00 0.00 0.00 69 1013.0
20260506184542 17 123 4.8 6.4 0.00 0.00 0.00 68 1013.0
20260506184042 17 65 6.4 8.0 0.00 0.00 0.00 67 1013.0
20260506183543 17 70 4.8 11.3 0.00 0.00 0.00 67 1013.0
20260506183043 17 64 8.0 16.1 0.00 0.00 0.00 67 1013.0
20260506182542 17 139 3.2 14.5 0.00 0.00 0.00 67 1012.0
20260506182042 17 80 8.0 16.1 0.00 0.00 0.00 66 1012.0
20260506181543 18 49 11.3 14.5 0.00 0.00 0.00 64 1012.0
20260506181043 18 40 14.5 16.1 0.00 0.00 0.00 63 1012.0
20260506180544 18 17 1.6 14.5 0.00 0.00 0.00 63 1012.0
20260506180042 18 92 6.4 11.3 0.00 0.00 0.00 62 1012.0
20260506175542 18 54 6.4 12.9 0.00 0.00 0.00 61 1012.0
20260506175044 18 34 3.2 9.7 0.00 0.00 0.00 60 1012.0
20260506174543 18 74 12.9 20.9 0.00 0.00 0.00 59 1012.0
20260506174042 18 90 8.0 20.9 0.00 0.00 0.00 59 1012.0
20260506173543 18 102 9.7 20.9 0.00 0.00 0.00 62 1012.0
20260506173043 18 81 6.4 16.1 0.00 0.00 0.00 62 1012.0
20260506172544 18 115 12.9 20.9 0.00 0.00 0.00 64 1012.0
20260506172043 18 87 20.9 24.1 0.00 0.00 0.00 62 1012.0
20260506171542 19 70 16.1 22.5 0.00 0.00 0.00 60 1012.0
20260506171043 19 106 9.7 17.7 0.00 0.00 0.00 55 1012.0
20260506170543 19 78 14.5 20.9 0.00 0.00 0.00 56 1012.0
20260506170043 19 73 16.1 24.1 0.00 0.00 0.00 58 1011.0
20260506165542 20 110 12.9 16.1 0.00 0.00 0.00 58 1012.0
20260506165042 19 108 17.7 22.5 0.00 0.00 0.00 59 1012.0
20260506164543 19 101 17.7 24.1 0.00 0.00 0.00 56 1012.0
20260506164043 20 107 14.5 25.7 0.00 0.00 0.00 50 1012.0
20260506163542 20 97 14.5 17.7 0.00 0.00 0.00 54 1012.0
20260506163043 20 55 12.9 27.4 0.00 0.00 0.00 54 1012.0
20260506162545 20 110 17.7 17.7 0.00 0.00 0.00 46 1012.0
20260506162042 20 105 6.4 16.1 0.00 0.00 0.00 45 1012.0
20260506161543 21 51 9.7 17.7 0.00 0.00 0.00 44 1012.0
20260506161043 20 26 8.0 17.7 0.00 0.00 0.00 46 1012.0
20260506160545 20 103 12.9 17.7 0.00 0.00 0.00 44 1012.0
20260506160043 20 49 14.5 17.7 0.00 0.00 0.00 46 1011.0
20260506155542 20 64 8.0 14.5 0.00 0.00 0.00 43 1012.0
20260506155043 20 110 11.3 14.5 0.00 0.00 0.00 43 1012.0
20260506154542 20 67 4.8 16.1 0.00 0.00 0.00 46 1011.0
20260506154043 20 77 8.0 22.5 0.00 0.00 0.00 48 1011.0
20260506153542 21 62 11.3 14.5 0.00 0.00 0.00 42 1012.0
20260506153043 21 18 4.8 9.7 0.00 0.00 0.00 42 1011.0
20260506152543 20 66 9.7 19.3 0.00 0.00 0.00 44 1012.0
20260506152043 20 55 11.3 17.7 0.00 0.00 0.00 46 1012.0
20260506151542 20 77 4.8 17.7 0.00 0.00 0.00 48 1012.0
20260506151043 20 98 4.8 14.5 0.00 0.00 0.00 46 1012.0
20260506150545 20 119 14.5 20.9 0.00 0.00 0.00 45 1012.0
20260506150045 20 111 9.7 11.3 0.00 0.00 0.00 44 1012.0
20260506145542 20 70 11.3 22.5 0.00 0.00 0.00 45 1012.0
20260506145043 20 106 22.5 22.5 0.00 0.00 0.00 45 1012.0
20260506144542 20 111 14.5 22.5 0.00 0.00 0.00 45 1012.0
20260506144042 20 63 9.7 25.7 0.00 0.00 0.00 46 1012.0
20260506143543 20 7 3.2 14.5 0.00 0.00 0.00 45 1012.0
20260506143044 19 99 11.3 19.3 0.00 0.00 0.00 46 1012.0
20260506142542 19 112 16.1 19.3 0.00 0.00 0.00 47 1012.0
20260506142043 19 115 9.7 11.3 0.00 0.00 0.00 48 1012.0
20260506141543 20 60 12.9 16.1 0.00 0.00 0.00 49 1012.0
20260506141043 19 91 6.4 22.5 0.00 0.00 0.00 51 1012.0
20260506140542 20 54 22.5 25.7 0.00 0.00 0.00 49 1013.0
20260506140044 20 8 8.0 17.7 0.00 0.00 0.00 47 1012.0
20260506135543 20 33 17.7 30.6 0.00 0.00 0.00 49 1012.0
20260506135043 20 66 22.5 30.6 0.00 0.00 0.00 48 1012.0
20260506134542 21 105 4.8 8.0 0.00 0.00 0.00 46 1012.0
20260506134042 22 260 3.2 11.3 0.00 0.00 0.00 40 1012.0